TimeMST,TemperatureF,Dew PointF,Humidity,Sea Level PressureIn,VisibilityMPH,Wind Direction,Wind SpeedMPH,Gust SpeedMPH,PrecipitationIn,Events,Conditions,WindDirDegrees,DateUTC
12:38 AM,32.0,30.2,93,29.85,9.0,South,8.1,-,0.00,,Overcast,170,2012-12-07 07:38:00
12:42 AM,32.0,30.2,93,29.85,10.0,South,8.1,-,0.00,,Overcast,170,2012-12-07 07:42:00
12:55 AM,30.9,30.0,96,29.93,10.0,South,8.1,-,0.00,,Overcast,180,2012-12-07 07:55:00
1:20 AM,30.2,30.2,100,29.86,7.0,South,3.5,-,0.00,Snow,Light Snow,170,2012-12-07 08:20:00
1:34 AM,30.2,30.2,100,29.86,10.0,SSE,3.5,-,0.00,,Overcast,160,2012-12-07 08:34:00
1:52 AM,30.2,30.2,100,29.86,10.0,SSE,8.1,-,0.00,Snow,Light Snow,160,2012-12-07 08:52:00
1:55 AM,30.9,30.0,96,29.94,9.0,SSE,8.1,-,0.00,Snow,Light Snow,160,2012-12-07 08:55:00
2:55 AM,30.9,30.0,96,29.95,10.0,South,4.6,-,0.00,,Overcast,170,2012-12-07 09:55:00
3:55 AM,30.9,30.0,96,29.95,10.0,Calm,Calm,-,N/A,,Overcast,0,2012-12-07 10:55:00
5:55 AM,28.0,27.0,96,29.98,10.0,Calm,Calm,-,N/A,,Overcast,0,2012-12-07 12:55:00
6:55 AM,28.0,27.0,96,29.99,10.0,SW,3.5,-,N/A,,Overcast,230,2012-12-07 13:55:00
7:55 AM,28.9,26.1,89,29.99,10.0,SSW,4.6,-,N/A,,Overcast,200,2012-12-07 14:55:00
8:55 AM,28.9,27.0,92,29.99,10.0,South,3.5,-,N/A,,Overcast,170,2012-12-07 15:55:00
9:55 AM,30.9,27.0,85,29.98,10.0,Calm,Calm,-,N/A,,Overcast,0,2012-12-07 16:55:00
10:46 AM,30.2,26.6,86,29.89,2.5,South,9.2,-,0.00,Snow,Light Snow,170,2012-12-07 17:46:00
10:55 AM,30.9,27.0,85,29.97,2.5,South,6.9,-,0.00,Snow,Light Snow,170,2012-12-07 17:55:00
11:21 AM,30.2,28.4,93,29.88,8.0,SE,5.8,-,0.00,,Overcast,140,2012-12-07 18:21:00
11:55 AM,32.0,28.0,85,29.92,9.0,Calm,Calm,-,0.00,,Overcast,0,2012-12-07 18:55:00
12:55 PM,33.1,28.0,82,29.87,2.0,SSE,10.4,-,0.00,Snow,Light Snow,160,2012-12-07 19:55:00
12:58 PM,32.0,28.4,87,29.79,1.2,SSE,10.4,-,0.00,Snow,Light Snow,150,2012-12-07 19:58:00
1:09 PM,33.8,28.4,81,29.79,2.0,SSE,11.5,-,0.01,Snow,Light Snow,150,2012-12-07 20:09:00
1:20 PM,32.0,28.4,87,29.79,3.0,SSE,10.4,-,0.01,Snow,Light Snow,160,2012-12-07 20:20:00
1:51 PM,32.0,28.4,87,29.77,2.5,SSE,13.8,-,0.01,Snow,Light Snow,150,2012-12-07 20:51:00
1:55 PM,32.0,28.9,88,29.83,1.5,SSE,15.0,-,0.01,Snow,Light Snow,150,2012-12-07 20:55:00
2:03 PM,32.0,30.2,93,29.75,1.0,SSE,11.5,-,0.00,Snow,Light Snow,150,2012-12-07 21:03:00
2:19 PM,32.0,30.2,93,29.74,1.5,SSE,12.7,-,0.00,Snow,Light Snow,150,2012-12-07 21:19:00
2:29 PM,32.0,30.2,93,29.74,2.5,SSE,13.8,-,0.00,Snow,Light Snow,150,2012-12-07 21:29:00
2:31 PM,32.0,30.2,93,29.74,3.0,SSE,11.5,-,0.00,Snow,Light Snow,150,2012-12-07 21:31:00
2:49 PM,30.2,28.4,93,29.73,10.0,SSE,12.7,-,0.00,,Overcast,150,2012-12-07 21:49:00
2:55 PM,30.9,28.9,92,29.81,4.0,SSE,13.8,-,0.00,Snow,Light Snow,150,2012-12-07 21:55:00
3:25 PM,30.2,28.4,93,29.70,1.2,SSE,12.7,-,0.00,Snow,Light Snow,150,2012-12-07 22:25:00
3:35 PM,30.2,28.4,93,29.70,0.8,SSE,13.8,-,0.00,Snow,Light Snow,150,2012-12-07 22:35:00
3:52 PM,30.2,28.4,93,29.68,1.2,SSE,16.1,23.0,0.01,Snow,Light Snow,150,2012-12-07 22:52:00
3:53 PM,30.9,28.9,92,29.76,1.2,SSE,13.8,23.0,0.01,Snow,Light Snow,150,2012-12-07 22:53:00
3:58 PM,30.2,28.4,93,29.68,2.0,SSE,17.3,-,0.00,Snow,Light Snow,150,2012-12-07 22:58:00
4:08 PM,30.2,28.4,93,29.68,1.8,SSE,13.8,-,0.00,Snow,Light Snow,150,2012-12-07 23:08:00
4:17 PM,30.2,30.2,100,29.68,1.2,SSE,12.7,-,0.00,Snow,Light Snow,160,2012-12-07 23:17:00
4:35 PM,30.2,30.2,100,29.67,0.5,South,12.7,-,0.01,Fog-Snow,Snow,170,2012-12-07 23:35:00
4:55 PM,30.9,30.0,96,29.74,0.8,South,10.4,-,0.03,Snow,Light Snow,170,2012-12-07 23:55:00
5:37 PM,30.2,30.2,100,29.66,0.8,South,6.9,-,0.05,Snow,Light Snow,180,2012-12-08 00:37:00
5:55 PM,30.9,30.0,96,29.73,0.8,South,6.9,-,0.06,Snow,Light Snow,170,2012-12-08 00:55:00
6:07 PM,30.2,30.2,100,29.66,1.5,SSE,4.6,-,0.01,Snow,Light Snow,160,2012-12-08 01:07:00
6:15 PM,30.2,30.2,100,29.65,4.0,South,5.8,-,0.01,Snow,Light Snow,170,2012-12-08 01:15:00
6:55 PM,30.0,28.9,96,29.73,10.0,SE,4.6,-,0.01,,Overcast,140,2012-12-08 01:55:00
7:55 PM,28.0,27.0,96,29.71,7.0,SE,3.5,-,N/A,,Mostly Cloudy,130,2012-12-08 02:55:00
8:55 PM,28.0,28.0,100,29.70,10.0,South,3.5,-,N/A,,Overcast,170,2012-12-08 03:55:00
9:55 PM,28.9,28.0,96,29.70,10.0,South,5.8,-,N/A,,Overcast,190,2012-12-08 04:55:00
10:19 PM,28.4,28.4,100,29.62,10.0,South,8.1,-,N/A,,Overcast,180,2012-12-08 05:19:00
10:55 PM,28.9,28.0,96,29.71,10.0,Calm,Calm,-,0.00,,Overcast,0,2012-12-08 05:55:00
11:55 PM,27.0,26.1,96,29.73,10.0,Calm,Calm,-,N/A,,Overcast,0,2012-12-08 06:55:00